Location: Jackson
(42.2460°N, 84.4010°W)
Time: 22:39:09
(UTC-04:00)

AO-7 - Visible Passes

Search period start: 16 March 2026 00:00
Search period end: 26 March 2026 00:00
Orbit: 1440 x 1458 km, 102.0° (Epoch: 16 March)

Date Brightness Start Highest point End Pass type
(mag) Time Alt. Az. Time Alt. Az. Time Alt. Az.
16 Mar ? 06:22:57 10° ENE 06:27:01 14° E 06:31:04 10° ESE visible
16 Mar ? 21:09:42 10° WSW 21:14:04 15° W 21:18:28 10° NW visible
17 Mar ? 07:13:17 10° NE 07:20:41 33° E 07:28:00 10° SSE visible
17 Mar ? 20:05:38 10° SSW 20:13:13 39° W 20:20:54 10° NNW visible
18 Mar ? 06:16:41 10° ENE 06:19:43 12° E 06:22:45 10° ESE visible
18 Mar ? 21:01:44 10° SW 21:06:46 17° W 21:11:53 10° NW visible
19 Mar ? 07:06:20 10° NE 07:13:28 30° E 07:20:31 10° SSE visible
20 Mar ? 06:11:16 10° ENE 06:12:25 10° E 06:13:34 10° E visible
20 Mar ? 20:53:54 10° SW 20:59:31 20° W 21:05:10 10° NW visible
21 Mar ? 06:59:24 10° NE 07:06:14 27° E 07:12:59 10° SSE visible
22 Mar ? 20:46:11 10° SW 20:52:15 22° W 20:58:23 10° NW visible
23 Mar ? 06:52:31 10° NE 06:58:59 24° E 07:05:23 10° SE visible
24 Mar ? 20:38:32 10° SW 20:45:00 25° W 20:51:32 10° NW visible
25 Mar ? 06:45:41 10° NE 06:51:44 21° E 06:57:43 10° SE visible
